Location: Ocean City
(38.3360°N, 75.0850°W)
Time: 07:27:17
(UTC-04:00)

BEESAT 2 - Pass Details

Date: 19 May 2019
Orbit: 502 x 528 km, 64.9° (Epoch: 15 June)

Event Time Altitude Azimuth Distance (km) Brightness Sun altitude
Rises 21:14:46 0° 261° (W) 2,621 ? -11.9°
Reaches altitude 10° 21:18:17 10° 295° (WNW) 1,746 ? -12.5°
Maximum altitude 21:19:42 12° 316° (NW) 1,647 ? -12.7°
Drops below altitude 10° 21:21:09 10° 338° (NNW) 1,756 ? -12.9°
Sets 21:24:43 0° 12° (NNE) 2,656 ? -13.4°
